CW9356 Weather Reports


time (UTC)temp
C
wind
direction
speed
KPH
gust
KPH
rain 1hr
cm
rain 24hr
cm
rain mn
cm
humidity
%
barometer
mb
20260505083704 11 48 0.0 1.6 0.00 0.43 0.00 65 1005.8
20260505082122 11 56 0.0 0.0 0.00 0.43 0.00 65 1005.7
20260505080638 12 146 0.0 1.6 0.00 0.43 0.00 61 1005.1
20260505075132 12 289 0.0 3.2 0.00 0.43 0.00 60 1005.0
20260505073614 12 317 1.6 12.9 0.00 0.43 0.00 61 1004.9
20260505072209 12 50 0.0 4.8 0.00 0.43 0.00 62 1004.8
20260505070624 12 17 0.0 6.4 0.00 0.43 0.00 63 1005.0
20260505065143 12 5 0.0 1.6 0.00 0.43 0.00 65 1004.7
20260505063620 12 40 0.0 3.2 0.00 0.43 0.00 67 1004.6
20260505062119 12 5 0.0 1.6 0.00 0.43 0.00 71 1004.4
20260505060616 12 55 0.0 3.2 0.00 0.43 0.00 77 1003.9
20260505055212 12 317 0.0 0.0 0.00 0.43 0.00 82 1003.5
20260505053711 12 25 0.0 0.0 0.00 0.43 0.00 81 1003.2
20260505052146 12 46 0.0 0.0 0.00 0.43 0.00 80 1002.8
20260505050623 12 36 0.0 1.6 0.03 0.43 0.00 80 1002.6
20260505040631 14 45 0.0 3.2 0.41 0.41 0.41 77 1002.6
20260505035127 16 250 0.0 1.6 0.41 0.41 0.41 71 1003.6
20260505033729 18 334 1.6 20.9 0.00 0.00 0.00 60 1003.2
20260505033626 18 334 1.6 20.9 0.00 0.00 0.00 60 1003.2
20260505032121 20 284 0.0 6.4 0.00 0.00 0.00 47 1002.4
20260505030619 20 131 0.0 0.0 0.00 0.00 0.00 63 1001.3
20260505025115 21 131 0.0 0.0 0.00 0.00 0.00 59 1000.3
20260505023653 21 131 0.0 0.0 0.00 0.00 0.00 58 1000.2
20260505022132 21 131 0.0 1.6 0.00 0.00 0.00 57 999.6
20260505020648 21 122 0.0 0.0 0.00 0.00 0.00 59 999.5
20260505015148 21 137 0.0 0.0 0.00 0.00 0.00 59 999.6
20260505013645 22 137 0.0 0.0 0.00 0.00 0.00 56 999.3
20260505012159 23 137 0.0 0.0 0.00 0.00 0.00 54 999.2
20260505010618 23 137 0.0 0.0 0.00 0.00 0.00 51 999.0
20260505005215 25 137 0.0 0.0 0.00 0.00 0.00 48 998.9
20260505003650 26 137 0.0 0.0 0.00 0.00 0.00 46 998.6
20260505002128 26 137 0.0 0.0 0.00 0.00 0.00 42 998.7
20260505000625 27 137 0.0 0.0 0.00 0.00 0.00 40 998.6
20260504235200 28 120 0.0 3.2 0.00 0.00 0.00 33 998.6
20260504233618 28 118 0.0 4.8 0.00 0.00 0.00 32 998.5
20260504232113 29 133 0.0 12.9 0.00 0.00 0.00 30 998.8
20260504230635 29 119 1.6 6.4 0.00 0.00 0.00 32 998.8
20260504225129 30 9 0.0 0.0 0.00 0.00 0.00 37 998.7
20260504223629 30 92 0.0 0.0 0.00 0.00 0.00 34 998.7
20260504222205 30 109 0.0 0.0 0.00 0.00 0.00 34 998.6
20260504220618 30 355 0.0 1.6 0.00 0.00 0.00 32 998.7
20260504215138 30 116 0.0 1.6 0.00 0.00 0.00 32 998.9
20260504213614 30 128 0.0 0.0 0.00 0.00 0.00 32 999.0
20260504212114 30 261 0.0 0.0 0.00 0.00 0.00 31 999.4
20260504210712 28 345 0.0 0.0 0.00 0.00 0.00 35 999.5
20260504205146 29 129 0.0 0.0 0.00 0.00 0.00 36 999.9
20260504203646 29 92 0.0 0.0 0.00 0.00 0.00 33 1000.1
20260504202201 28 136 0.0 0.0 0.00 0.00 0.00 29 1000.3
20260504200636 28 63 0.0 0.0 0.00 0.00 0.00 34 1000.6
20260504195155 28 117 0.0 1.6 0.00 0.00 0.00 31 1000.7
20260504193631 28 113 0.0 0.0 0.00 0.00 0.00 33 1000.7
20260504192147 28 123 0.0 0.0 0.00 0.00 0.00 34 1000.9
20260504190707 28 138 0.0 0.0 0.00 0.00 0.00 32 1001.0
20260504185201 27 121 0.0 4.8 0.00 0.00 0.00 34 1001.1
20260504183636 27 164 0.0 1.6 0.00 0.00 0.00 36 1001.3
20260504182134 27 121 0.0 0.0 0.00 0.00 0.00 37 1001.5
20260504180631 27 126 0.0 0.0 0.00 0.00 0.00 37 1001.5
20260504175131 27 115 0.0 0.0 0.00 0.00 0.00 33 1001.5
20260504173627 27 360 0.0 0.0 0.00 0.00 0.00 36 1001.6
20260504172144 27 360 0.0 0.0 0.00 0.00 0.00 33 1001.6
20260504170725 26 15 0.0 0.0 0.00 0.00 0.00 36 1001.7
20260504150737 22 128 0.0 0.0 0.00 0.00 0.00 48 1001.7
20260504150655 22 128 0.0 0.0 0.00 0.00 0.00 48 1001.7
20260504140621 18 62 0.0 0.0 0.00 0.00 0.00 59 1001.8
20260504130654 15 168 0.0 1.6 0.00 0.00 0.00 65 1001.4
20260504110708 17 150 0.0 0.0 0.00 0.00 0.00 55 1001.3
20260504100614 17 162 0.0 3.2 0.00 0.00 0.00 52 1000.9